| time (UTC) | temp F | wind direction | speed knots | gust knots | rain 1hr in | rain 24hr in | rain mn in | humidity % | barometer mb |
| 20260901022018 | 68 | 5 | 1.7 | 2.6 | 0.00 | 0.00 | 0.00 | 51 | 1015.8 |
| 20260901021508 | 68 | 19 | 0.0 | 2.6 | 0.00 | 0.00 | 0.00 | 49 | 1015.9 |
| 20260901020508 | 68 | 19 | 2.6 | 2.6 | 0.00 | 0.00 | 0.00 | 48 | 1015.9 |
| 20260901020018 | 69 | 40 | 0.0 | 0.0 | 0.00 | 0.00 | 0.00 | 47 | 1015.9 |
| 20260901015019 | 69 | 40 | 0.0 | 0.0 | 0.00 | 0.00 | 0.00 | 46 | 1015.8 |
| 20260901014518 | 70 | 40 | 0.0 | 0.0 | 0.00 | 0.00 | 0.00 | 45 | 1015.9 |
| 20260901014019 | 70 | 40 | 0.0 | 1.7 | 0.00 | 0.00 | 0.00 | 44 | 1015.9 |
| 20260901013519 | 70 | 40 | 0.9 | 2.6 | 0.00 | 0.00 | 0.00 | 44 | 1015.9 |
| 20260901013019 | 70 | 40 | 1.7 | 2.6 | 0.00 | 0.00 | 0.00 | 44 | 1015.9 |
| 20260901012519 | 71 | 41 | 1.7 | 2.6 | 0.00 | 0.00 | 0.00 | 44 | 1015.9 |
| 20260901012019 | 71 | 46 | 1.7 | 2.6 | 0.00 | 0.00 | 0.00 | 43 | 1016.0 |
| 20260901011018 | 71 | 52 | 1.7 | 2.6 | 0.00 | 0.00 | 0.00 | 43 | 1015.9 |
| 20260901010519 | 71 | 30 | 1.7 | 4.3 | 0.00 | 0.00 | 0.00 | 43 | 1015.8 |
| 20260901005518 | 71 | 40 | 1.7 | 5.2 | 0.00 | 0.00 | 0.00 | 43 | 1015.8 |
| 20260901005019 | 70 | 44 | 1.7 | 2.6 | 0.00 | 0.00 | 0.00 | 43 | 1015.9 |
| 20260901004018 | 70 | 20 | 1.7 | 4.3 | 0.00 | 0.00 | 0.00 | 43 | 1016.0 |
| 20260901003018 | 70 | 32 | 2.6 | 6.1 | 0.00 | 0.00 | 0.00 | 42 | 1016.0 |
| 20260901002518 | 70 | 15 | 2.6 | 4.3 | 0.00 | 0.00 | 0.00 | 42 | 1016.0 |
| 20260901002018 | 70 | 11 | 2.6 | 2.6 | 0.00 | 0.00 | 0.00 | 41 | 1016.1 |
| 20260901001512 | 70 | 6 | 2.6 | 4.3 | 0.00 | 0.00 | 0.00 | 40 | 1016.1 |
| 20260901000507 | 69 | 49 | 1.7 | 4.3 | 0.00 | 0.00 | 0.00 | 40 | 1016.3 |
| 20260901000007 | 69 | 70 | 0.9 | 4.3 | 0.00 | 0.00 | 0.00 | 40 | 1016.2 |
| 20260831235509 | 68 | 26 | 1.7 | 4.3 | 0.00 | 0.00 | 0.00 | 40 | 1016.0 |
| 20260831235019 | 68 | 18 | 2.6 | 5.2 | 0.00 | 0.00 | 0.00 | 41 | 1016.0 |
| 20260831234518 | 68 | 354 | 4.3 | 7.0 | 0.00 | 0.00 | 0.00 | 40 | 1015.9 |
| 20260831234019 | 68 | 354 | 4.3 | 5.2 | 0.00 | 0.00 | 0.00 | 40 | 1015.9 |
| 20260831233519 | 69 | 0 | 2.6 | 5.2 | 0.00 | 0.00 | 0.00 | 39 | 1016.0 |
| 20260831232518 | 70 | 32 | 2.6 | 7.8 | 0.00 | 0.00 | 0.00 | 39 | 1015.9 |
| 20260831232018 | 71 | 91 | 6.1 | 8.7 | 0.00 | 0.00 | 0.00 | 37 | 1015.9 |
| 20260831231519 | 72 | 124 | 3.5 | 8.7 | 0.00 | 0.00 | 0.00 | 37 | 1015.8 |
| 20260831231018 | 71 | 21 | 2.6 | 2.6 | 0.00 | 0.00 | 0.00 | 37 | 1015.6 |
| 20260831230518 | 71 | 355 | 2.6 | 2.6 | 0.00 | 0.00 | 0.00 | 37 | 1015.6 |
| 20260831230019 | 71 | 11 | 2.6 | 2.6 | 0.00 | 0.00 | 0.00 | 36 | 1015.6 |
| 20260831225518 | 72 | 11 | 1.7 | 2.6 | 0.00 | 0.00 | 0.00 | 35 | 1015.6 |
| 20260831225018 | 73 | 11 | 2.6 | 2.6 | 0.00 | 0.00 | 0.00 | 36 | 1015.5 |
| 20260831224519 | 72 | 11 | 2.6 | 4.3 | 0.00 | 0.00 | 0.00 | 36 | 1015.6 |
| 20260831224007 | 72 | 10 | 2.6 | 4.3 | 0.00 | 0.00 | 0.00 | 36 | 1015.6 |
| 20260831222518 | 73 | 352 | 0.0 | 0.0 | 0.00 | 0.00 | 0.00 | 34 | 1015.7 |
| 20260831222007 | 74 | 342 | 0.0 | 0.0 | 0.00 | 0.00 | 0.00 | 34 | 1015.6 |
| 20260831221518 | 74 | 342 | 0.0 | 0.0 | 0.00 | 0.00 | 0.00 | 34 | 1015.5 |
| 20260831221022 | 74 | 342 | 0.0 | 0.0 | 0.00 | 0.00 | 0.00 | 33 | 1015.5 |
| 20260831220518 | 76 | 342 | 0.0 | 0.0 | 0.00 | 0.00 | 0.00 | 33 | 1015.5 |
| 20260831220019 | 77 | 342 | 0.0 | 0.0 | 0.00 | 0.00 | 0.00 | 32 | 1015.6 |
| 20260831215007 | 77 | 342 | 0.0 | 0.0 | 0.00 | 0.00 | 0.00 | 31 | 1015.5 |
| 20260831214019 | 76 | 342 | 0.0 | 0.0 | 0.00 | 0.00 | 0.00 | 31 | 1015.6 |
| 20260831213518 | 76 | 342 | 0.0 | 0.0 | 0.00 | 0.00 | 0.00 | 32 | 1015.5 |
| 20260831213019 | 76 | 342 | 0.0 | 0.0 | 0.00 | 0.00 | 0.00 | 32 | 1015.5 |
| 20260831211519 | 75 | 342 | 0.0 | 0.0 | 0.00 | 0.00 | 0.00 | 33 | 1015.3 |
| 20260831211007 | 75 | 342 | 0.0 | 0.0 | 0.00 | 0.00 | 0.00 | 33 | 1015.3 |
| 20260831210519 | 76 | 342 | 0.0 | 0.0 | 0.00 | 0.00 | 0.00 | 33 | 1015.2 |
| 20260831210007 | 77 | 342 | 0.0 | 0.0 | 0.00 | 0.00 | 0.00 | 32 | 1015.2 |
| 20260831205518 | 77 | 315 | 0.0 | 0.0 | 0.00 | 0.00 | 0.00 | 31 | 1015.2 |
| 20260831205007 | 78 | 315 | 0.0 | 0.0 | 0.00 | 0.00 | 0.00 | 32 | 1015.1 |
| 20260831204519 | 78 | 315 | 0.0 | 0.0 | 0.00 | 0.00 | 0.00 | 31 | 1015.0 |
| 20260831204018 | 78 | 315 | 0.0 | 0.0 | 0.00 | 0.00 | 0.00 | 30 | 1015.0 |
| 20260831203518 | 78 | 315 | 0.0 | 0.0 | 0.00 | 0.00 | 0.00 | 30 | 1014.8 |
| 20260831202507 | 78 | 315 | 0.0 | 0.0 | 0.00 | 0.00 | 0.00 | 30 | 1014.7 |
| 20260831202018 | 79 | 315 | 0.0 | 0.0 | 0.00 | 0.00 | 0.00 | 30 | 1014.8 |
| 20260831200518 | 80 | 315 | 0.0 | 0.0 | 0.00 | 0.00 | 0.00 | 29 | 1014.8 |
| 20260831200018 | 80 | 315 | 0.0 | 0.0 | 0.00 | 0.00 | 0.00 | 29 | 1014.7 |
| 20260831195018 | 81 | 315 | 0.9 | 1.7 | 0.00 | 0.00 | 0.00 | 28 | 1014.4 |
| 20260831194507 | 81 | 315 | 1.7 | 2.6 | 0.00 | 0.00 | 0.00 | 28 | 1014.4 |
| 20260831194018 | 82 | 315 | 4.3 | 5.2 | 0.00 | 0.00 | 0.00 | 28 | 1014.4 |
| 20260831193518 | 82 | 313 | 5.2 | 7.0 | 0.00 | 0.00 | 0.00 | 27 | 1014.4 |
| 20260831193018 | 81 | 313 | 5.2 | 7.0 | 0.00 | 0.00 | 0.00 | 27 | 1014.3 |
| 20260831192017 | 82 | 313 | 4.3 | 6.1 | 0.00 | 0.00 | 0.00 | 27 | 1014.2 |
| 20260831191518 | 82 | 311 | 3.5 | 4.3 | 0.00 | 0.00 | 0.00 | 26 | 1014.3 |
| 20260831191018 | 83 | 309 | 4.3 | 6.1 | 0.00 | 0.00 | 0.00 | 26 | 1014.2 |
| 20260831190507 | 83 | 311 | 3.5 | 6.1 | 0.00 | 0.00 | 0.00 | 26 | 1014.2 |
| 20260831190019 | 84 | 309 | 2.6 | 4.3 | 0.00 | 0.00 | 0.00 | 26 | 1014.1 |
| 20260831185506 | 85 | 308 | 2.6 | 4.3 | 0.00 | 0.00 | 0.00 | 25 | 1014.1 |
| 20260831185017 | 86 | 302 | 1.7 | 2.6 | 0.00 | 0.00 | 0.00 | 24 | 1014.1 |
| 20260831184518 | 87 | 290 | 2.6 | 4.3 | 0.00 | 0.00 | 0.00 | 24 | 1014.1 |
| 20260831183518 | 88 | 281 | 3.5 | 6.1 | 0.00 | 0.00 | 0.00 | 23 | 1014.2 |
| 20260831183018 | 88 | 283 | 4.3 | 7.0 | 0.00 | 0.00 | 0.00 | 23 | 1014.2 |
| 20260831182518 | 88 | 285 | 3.5 | 6.1 | 0.00 | 0.00 | 0.00 | 23 | 1014.2 |
| 20260831181524 | 89 | 275 | 0.0 | 2.6 | 0.00 | 0.00 | 0.00 | 22 | 1014.2 |
| 20260831181018 | 89 | 276 | 0.9 | 5.2 | 0.00 | 0.00 | 0.00 | 22 | 1014.2 |
| 20260831180522 | 89 | 271 | 2.6 | 5.2 | 0.00 | 0.00 | 0.00 | 22 | 1014.2 |
| 20260831180007 | 89 | 289 | 2.6 | 6.1 | 0.00 | 0.00 | 0.00 | 22 | 1014.2 |
| 20260831175518 | 89 | 283 | 6.1 | 8.7 | 0.00 | 0.00 | 0.00 | 22 | 1014.3 |
| 20260831175018 | 89 | 284 | 1.7 | 7.0 | 0.00 | 0.00 | 0.00 | 22 | 1014.3 |
| 20260831174007 | 90 | 286 | 6.1 | 10.4 | 0.00 | 0.00 | 0.00 | 22 | 1014.3 |
| 20260831173007 | 90 | 229 | 4.3 | 7.0 | 0.00 | 0.00 | 0.00 | 22 | 1014.2 |
| 20260831172018 | 90 | 235 | 2.6 | 7.0 | 0.00 | 0.00 | 0.00 | 22 | 1014.3 |
| 20260831171518 | 90 | 206 | 4.3 | 14.8 | 0.00 | 0.00 | 0.00 | 21 | 1014.2 |
| 20260831170518 | 91 | 291 | 3.5 | 7.8 | 0.00 | 0.00 | 0.00 | 22 | 1014.3 |
| 20260831170018 | 90 | 242 | 3.5 | 7.0 | 0.00 | 0.00 | 0.00 | 22 | 1014.3 |
| 20260831165506 | 90 | 231 | 5.2 | 8.7 | 0.00 | 0.00 | 0.00 | 22 | 1014.4 |
| 20260831165017 | 90 | 259 | 4.3 | 7.8 | 0.00 | 0.00 | 0.00 | 22 | 1014.4 |
| 20260831164518 | 90 | 265 | 6.1 | 11.3 | 0.00 | 0.00 | 0.00 | 22 | 1014.4 |
| 20260831164017 | 90 | 189 | 3.5 | 8.7 | 0.00 | 0.00 | 0.00 | 23 | 1014.4 |
| 20260831163518 | 90 | 187 | 5.2 | 7.8 | 0.00 | 0.00 | 0.00 | 22 | 1014.4 |
| 20260831162507 | 90 | 292 | 4.3 | 10.4 | 0.00 | 0.00 | 0.00 | 22 | 1014.4 |
| 20260831162006 | 90 | 254 | 5.2 | 10.4 | 0.00 | 0.00 | 0.00 | 22 | 1014.3 |
| 20260831161518 | 90 | 235 | 5.2 | 13.0 | 0.00 | 0.00 | 0.00 | 22 | 1014.3 |
| 20260831160518 | 89 | 214 | 3.5 | 7.8 | 0.00 | 0.00 | 0.00 | 24 | 1014.3 |
| 20260831160018 | 89 | 204 | 4.3 | 7.0 | 0.00 | 0.00 | 0.00 | 24 | 1014.5 |
| 20260831155518 | 89 | 194 | 4.3 | 8.7 | 0.00 | 0.00 | 0.00 | 24 | 1014.6 |
| 20260831155006 | 89 | 187 | 4.3 | 10.4 | 0.00 | 0.00 | 0.00 | 24 | 1014.8 |
| 20260831154518 | 89 | 207 | 1.7 | 6.1 | 0.00 | 0.00 | 0.00 | 23 | 1014.8 |
| 20260831154007 | 90 | 239 | 5.2 | 10.4 | 0.00 | 0.00 | 0.00 | 22 | 1014.8 |
| 20260831153507 | 90 | 230 | 3.5 | 10.4 | 0.00 | 0.00 | 0.00 | 23 | 1014.8 |
| 20260831153018 | 89 | 249 | 6.1 | 11.3 | 0.00 | 0.00 | 0.00 | 23 | 1014.9 |
| 20260831152517 | 89 | 187 | 4.3 | 10.4 | 0.00 | 0.00 | 0.00 | 23 | 1014.8 |
| 20260831152017 | 89 | 248 | 3.5 | 8.7 | 0.00 | 0.00 | 0.00 | 24 | 1015.0 |
| 20260831151506 | 89 | 215 | 5.2 | 10.4 | 0.00 | 0.00 | 0.00 | 23 | 1015.0 |
| 20260831151018 | 90 | 216 | 4.3 | 10.4 | 0.00 | 0.00 | 0.00 | 24 | 1015.0 |
| 20260831150518 | 89 | 249 | 3.5 | 10.4 | 0.00 | 0.00 | 0.00 | 24 | 1015.0 |
| 20260831150017 | 89 | 197 | 2.6 | 8.7 | 0.00 | 0.00 | 0.00 | 23 | 1014.9 |
| 20260831145506 | 89 | 217 | 2.6 | 10.4 | 0.00 | 0.00 | 0.00 | 24 | 1015.1 |
| 20260831145006 | 89 | 267 | 2.6 | 10.4 | 0.00 | 0.00 | 0.00 | 24 | 1015.1 |
| 20260831144506 | 89 | 198 | 4.3 | 10.4 | 0.00 | 0.00 | 0.00 | 24 | 1015.1 |
| 20260831144006 | 89 | 217 | 3.5 | 10.4 | 0.00 | 0.00 | 0.00 | 24 | 1015.2 |
| 20260831142506 | 88 | 259 | 0.9 | 6.1 | 0.00 | 0.00 | 0.00 | 25 | 1015.2 |
| 20260831141517 | 88 | 243 | 5.2 | 7.8 | 0.00 | 0.00 | 0.00 | 24 | 1015.4 |
| 20260831141017 | 88 | 193 | 4.3 | 11.3 | 0.00 | 0.00 | 0.00 | 25 | 1015.4 |
| 20260831140506 | 88 | 214 | 4.3 | 10.4 | 0.00 | 0.00 | 0.00 | 25 | 1015.6 |
| 20260831140018 | 88 | 201 | 2.6 | 7.0 | 0.00 | 0.00 | 0.00 | 25 | 1015.6 |
| 20260831135517 | 88 | 268 | 5.2 | 11.3 | 0.00 | 0.00 | 0.00 | 25 | 1015.7 |
| 20260831135017 | 88 | 294 | 4.3 | 8.7 | 0.00 | 0.00 | 0.00 | 25 | 1015.6 |
| 20260831134017 | 87 | 291 | 6.1 | 10.4 | 0.00 | 0.00 | 0.00 | 25 | 1015.8 |
| 20260831133517 | 87 | 273 | 7.0 | 12.2 | 0.00 | 0.00 | 0.00 | 25 | 1015.8 |
| 20260831133018 | 87 | 258 | 1.7 | 10.4 | 0.00 | 0.00 | 0.00 | 26 | 1015.7 |
| 20260831132518 | 87 | 238 | 7.8 | 10.4 | 0.00 | 0.00 | 0.00 | 27 | 1015.9 |
| 20260831130507 | 86 | 249 | 7.8 | 11.3 | 0.00 | 0.00 | 0.00 | 26 | 1016.1 |
| 20260831130017 | 85 | 291 | 6.1 | 11.3 | 0.00 | 0.00 | 0.00 | 28 | 1016.1 |
| 20260831125517 | 86 | 254 | 5.2 | 10.4 | 0.00 | 0.00 | 0.00 | 27 | 1016.2 |
| 20260831125018 | 85 | 210 | 4.3 | 8.7 | 0.00 | 0.00 | 0.00 | 28 | 1016.1 |
| 20260831124517 | 85 | 178 | 3.5 | 7.8 | 0.00 | 0.00 | 0.00 | 28 | 1016.2 |
| 20260831124017 | 86 | 238 | 7.8 | 12.2 | 0.00 | 0.00 | 0.00 | 28 | 1016.3 |
| 20260831123518 | 85 | 202 | 2.6 | 10.4 | 0.00 | 0.00 | 0.00 | 29 | 1016.3 |
| 20260831123018 | 85 | 271 | 2.6 | 7.0 | 0.00 | 0.00 | 0.00 | 29 | 1016.5 |
| 20260831122006 | 85 | 230 | 1.7 | 8.7 | 0.00 | 0.00 | 0.00 | 29 | 1016.5 |
| 20260831121507 | 85 | 187 | 5.2 | 7.8 | 0.00 | 0.00 | 0.00 | 29 | 1016.5 |
| 20260831121017 | 85 | 260 | 4.3 | 7.8 | 0.00 | 0.00 | 0.00 | 29 | 1016.6 |
| 20260831120506 | 84 | 271 | 4.3 | 7.8 | 0.00 | 0.00 | 0.00 | 29 | 1016.6 |
| 20260831120007 | 85 | 293 | 6.1 | 8.7 | 0.00 | 0.00 | 0.00 | 30 | 1016.6 |
| 20260831115018 | 84 | 196 | 3.5 | 7.8 | 0.00 | 0.00 | 0.00 | 30 | 1016.7 |
| 20260831114517 | 84 | 358 | 0.9 | 6.1 | 0.00 | 0.00 | 0.00 | 30 | 1016.8 |
| 20260831114017 | 84 | 265 | 3.5 | 6.1 | 0.00 | 0.00 | 0.00 | 30 | 1016.9 |
| 20260831113517 | 83 | 225 | 4.3 | 10.4 | 0.00 | 0.00 | 0.00 | 31 | 1016.9 |
| 20260831113018 | 83 | 162 | 4.3 | 10.4 | 0.00 | 0.00 | 0.00 | 31 | 1016.8 |
| 20260831112518 | 83 | 169 | 5.2 | 8.7 | 0.00 | 0.00 | 0.00 | 31 | 1017.0 |
| 20260831111517 | 84 | 194 | 3.5 | 10.4 | 0.00 | 0.00 | 0.00 | 32 | 1017.1 |
| 20260831111017 | 83 | 207 | 0.9 | 2.6 | 0.00 | 0.00 | 0.00 | 32 | 1017.2 |
| 20260831110517 | 83 | 7 | 1.7 | 6.1 | 0.00 | 0.00 | 0.00 | 31 | 1017.3 |
| 20260831110007 | 82 | 251 | 2.6 | 6.1 | 0.00 | 0.00 | 0.00 | 32 | 1017.4 |
| 20260831105017 | 82 | 225 | 2.6 | 6.1 | 0.00 | 0.00 | 0.00 | 32 | 1017.3 |
| 20260831104517 | 82 | 174 | 2.6 | 8.7 | 0.00 | 0.00 | 0.00 | 32 | 1017.3 |
| 20260831103518 | 82 | 155 | 1.7 | 4.3 | 0.00 | 0.00 | 0.00 | 32 | 1017.4 |
| 20260831103017 | 82 | 178 | 1.7 | 2.6 | 0.00 | 0.00 | 0.00 | 33 | 1017.3 |
| 20260831102517 | 82 | 201 | 4.3 | 7.8 | 0.00 | 0.00 | 0.00 | 32 | 1017.3 |
| 20260831102017 | 82 | 189 | 0.9 | 4.3 | 0.00 | 0.00 | 0.00 | 32 | 1017.4 |
| 20260831101017 | 81 | 220 | 0.0 | 2.6 | 0.00 | 0.00 | 0.00 | 33 | 1017.4 |
| 20260831100507 | 80 | 78 | 1.7 | 6.1 | 0.00 | 0.00 | 0.00 | 33 | 1017.4 |
| 20260831095519 | 80 | 54 | 1.7 | 4.3 | 0.00 | 0.00 | 0.00 | 34 | 1017.4 |
| 20260831094519 | 79 | 86 | 2.6 | 7.0 | 0.00 | 0.00 | 0.00 | 34 | 1017.4 |
| 20260831094019 | 79 | 154 | 1.7 | 5.2 | 0.00 | 0.00 | 0.00 | 34 | 1017.4 |
| 20260831093508 | 79 | 118 | 4.3 | 7.0 | 0.00 | 0.00 | 0.00 | 34 | 1017.6 |
| 20260831093020 | 78 | 94 | 5.2 | 7.8 | 0.00 | 0.00 | 0.00 | 34 | 1017.5 |
| 20260831091519 | 78 | 12 | 1.7 | 5.2 | 0.00 | 0.00 | 0.00 | 34 | 1017.5 |
| 20260831090520 | 77 | 78 | 2.6 | 6.1 | 0.00 | 0.00 | 0.00 | 35 | 1017.5 |
| 20260831085519 | 76 | 93 | 2.6 | 7.0 | 0.00 | 0.00 | 0.00 | 36 | 1017.4 |
| 20260831085018 | 76 | 60 | 2.6 | 4.3 | 0.00 | 0.00 | 0.00 | 36 | 1017.4 |
| 20260831084519 | 76 | 70 | 2.6 | 6.1 | 0.00 | 0.00 | 0.00 | 36 | 1017.4 |
| 20260831084018 | 75 | 80 | 3.5 | 7.8 | 0.00 | 0.00 | 0.00 | 36 | 1017.4 |
| 20260831083519 | 75 | 81 | 2.6 | 7.8 | 0.00 | 0.00 | 0.00 | 37 | 1017.4 |
| 20260831083019 | 74 | 71 | 1.7 | 7.0 | 0.00 | 0.00 | 0.00 | 38 | 1017.4 |
| 20260831082519 | 74 | 79 | 4.3 | 7.8 | 0.00 | 0.00 | 0.00 | 37 | 1017.5 |
| 20260831082008 | 74 | 76 | 4.3 | 7.8 | 0.00 | 0.00 | 0.00 | 39 | 1017.5 |
| 20260831081519 | 73 | 41 | 3.5 | 6.1 | 0.00 | 0.00 | 0.00 | 39 | 1017.5 |
| 20260831081019 | 73 | 70 | 2.6 | 7.0 | 0.00 | 0.00 | 0.00 | 40 | 1017.4 |
| 20260831080019 | 72 | 58 | 3.5 | 7.0 | 0.00 | 0.00 | 0.00 | 40 | 1017.5 |
| 20260831075519 | 72 | 21 | 1.7 | 4.3 | 0.00 | 0.00 | 0.00 | 41 | 1017.4 |
| 20260831075008 | 72 | 32 | 2.6 | 4.3 | 0.00 | 0.00 | 0.00 | 41 | 1017.4 |
| 20260831074519 | 71 | 13 | 3.5 | 6.1 | 0.00 | 0.00 | 0.00 | 42 | 1017.3 |
| 20260831073519 | 71 | 12 | 2.6 | 6.1 | 0.00 | 0.00 | 0.00 | 43 | 1017.3 |
| 20260831073008 | 70 | 14 | 2.6 | 6.1 | 0.00 | 0.00 | 0.00 | 44 | 1017.3 |
| 20260831072019 | 69 | 18 | 4.3 | 6.1 | 0.00 | 0.00 | 0.00 | 45 | 1017.2 |
| 20260831071518 | 69 | 8 | 4.3 | 7.0 | 0.00 | 0.00 | 0.00 | 45 | 1017.2 |
| 20260831071018 | 69 | 20 | 3.5 | 7.0 | 0.00 | 0.00 | 0.00 | 46 | 1017.2 |
| 20260831070019 | 68 | 11 | 2.6 | 6.1 | 0.00 | 0.00 | 0.00 | 47 | 1017.1 |
| 20260831065518 | 67 | 10 | 2.6 | 5.2 | 0.00 | 0.00 | 0.00 | 48 | 1017.0 |
| 20260831064519 | 67 | 4 | 2.6 | 4.3 | 0.00 | 0.00 | 0.00 | 48 | 1017.1 |
| 20260831064019 | 67 | 19 | 2.6 | 4.3 | 0.00 | 0.00 | 0.00 | 48 | 1017.1 |
| 20260831063019 | 66 | 29 | 3.5 | 7.0 | 0.00 | 0.00 | 0.00 | 49 | 1017.0 |
| 20260831062519 | 66 | 30 | 4.3 | 7.0 | 0.00 | 0.00 | 0.00 | 50 | 1017.0 |
| 20260831062019 | 64 | 12 | 4.3 | 7.0 | 0.00 | 0.00 | 0.00 | 51 | 1017.0 |
| 20260831061508 | 64 | 17 | 4.3 | 6.1 | 0.00 | 0.00 | 0.00 | 52 | 1017.0 |
| 20260831061018 | 64 | 11 | 2.6 | 6.1 | 0.00 | 0.00 | 0.00 | 52 | 1016.9 |
| 20260831060518 | 64 | 11 | 2.6 | 6.1 | 0.00 | 0.00 | 0.00 | 51 | 1016.9 |
| 20260831055519 | 64 | 27 | 2.6 | 5.2 | 0.00 | 0.00 | 0.00 | 51 | 1017.0 |
| 20260831055019 | 64 | 25 | 2.6 | 5.2 | 0.00 | 0.00 | 0.00 | 52 | 1017.0 |
| 20260831054519 | 63 | 30 | 2.6 | 4.3 | 0.00 | 0.00 | 0.00 | 53 | 1016.9 |
| 20260831054019 | 63 | 21 | 2.6 | 4.3 | 0.00 | 0.00 | 0.00 | 53 | 1016.8 |
| 20260831053519 | 63 | 5 | 2.6 | 4.3 | 0.00 | 0.00 | 0.00 | 53 | 1016.8 |
| 20260831052518 | 64 | 27 | 0.0 | 2.6 | 0.00 | 0.00 | 0.00 | 51 | 1016.8 |
| 20260831052019 | 64 | 27 | 1.7 | 2.6 | 0.00 | 0.00 | 0.00 | 51 | 1016.8 |
| 20260831051519 | 64 | 22 | 2.6 | 4.3 | 0.00 | 0.00 | 0.00 | 51 | 1016.9 |
| 20260831051008 | 64 | 12 | 0.9 | 2.6 | 0.00 | 0.00 | 0.00 | 52 | 1016.9 |
| 20260831050519 | 64 | 12 | 0.0 | 0.0 | 0.00 | 0.00 | 0.00 | 51 | 1016.8 |
| 20260831050019 | 66 | 16 | 0.0 | 1.7 | 0.00 | 0.00 | 0.00 | 50 | 1016.7 |
| 20260831045519 | 66 | 15 | 0.9 | 2.6 | 0.00 | 0.00 | 0.00 | 50 | 1016.7 |
| 20260831045019 | 66 | 25 | 2.6 | 5.2 | 0.00 | 0.00 | 0.00 | 50 | 1016.7 |
| 20260831044519 | 65 | 29 | 2.6 | 4.3 | 0.00 | 0.00 | 0.00 | 51 | 1016.7 |
| 20260831044018 | 65 | 37 | 2.6 | 4.3 | 0.00 | 0.00 | 0.00 | 52 | 1016.6 |
| 20260831043519 | 65 | 16 | 2.6 | 2.6 | 0.00 | 0.00 | 0.00 | 51 | 1016.6 |
| 20260831043018 | 66 | 352 | 2.6 | 2.6 | 0.00 | 0.00 | 0.00 | 50 | 1016.6 |
| 20260831042019 | 67 | 26 | 2.6 | 5.2 | 0.00 | 0.00 | 0.00 | 50 | 1016.4 |
| 20260831041507 | 66 | 42 | 2.6 | 7.8 | 0.00 | 0.00 | 0.00 | 51 | 1016.4 |
| 20260831041019 | 65 | 20 | 2.6 | 4.3 | 0.00 | 0.00 | 0.00 | 52 | 1016.4 |
| 20260831040519 | 65 | 20 | 2.6 | 4.3 | 0.00 | 0.00 | 0.00 | 52 | 1016.5 |
| 20260831040008 | 66 | 13 | 2.6 | 4.3 | 0.00 | 0.00 | 0.00 | 51 | 1016.6 |
| 20260831035518 | 66 | 0 | 2.6 | 4.3 | 0.00 | 0.00 | 0.00 | 50 | 1016.5 |
| 20260831035008 | 67 | 14 | 1.7 | 4.3 | 0.00 | 0.00 | 0.00 | 49 | 1016.5 |
| 20260831034508 | 68 | 16 | 2.6 | 4.3 | 0.00 | 0.00 | 0.00 | 49 | 1016.4 |
| 20260831034018 | 68 | 25 | 2.6 | 4.3 | 0.00 | 0.00 | 0.00 | 49 | 1016.3 |
| 20260831033519 | 67 | 29 | 2.6 | 4.3 | 0.00 | 0.00 | 0.00 | 50 | 1016.2 |
| 20260831033019 | 67 | 25 | 2.6 | 6.1 | 0.00 | 0.00 | 0.00 | 50 | 1016.2 |
| 20260831032508 | 67 | 31 | 2.6 | 6.1 | 0.00 | 0.00 | 0.00 | 52 | 1016.2 |
| 20260831032018 | 66 | 16 | 2.6 | 4.3 | 0.00 | 0.00 | 0.00 | 52 | 1016.2 |
| 20260831031508 | 66 | 6 | 2.6 | 4.3 | 0.00 | 0.00 | 0.00 | 51 | 1016.3 |
| 20260831031019 | 67 | 5 | 2.6 | 2.6 | 0.00 | 0.00 | 0.00 | 51 | 1016.3 |
| 20260831030518 | 67 | 5 | 2.6 | 2.6 | 0.00 | 0.00 | 0.00 | 50 | 1016.3 |
| 20260831030019 | 68 | 6 | 2.6 | 2.6 | 0.00 | 0.00 | 0.00 | 49 | 1016.3 |
| 20260831025518 | 68 | 19 | 2.6 | 4.3 | 0.00 | 0.00 | 0.00 | 49 | 1016.3 |
| 20260831025019 | 68 | 32 | 2.6 | 4.3 | 0.00 | 0.00 | 0.00 | 49 | 1016.2 |
| 20260831024018 | 68 | 8 | 2.6 | 5.2 | 0.00 | 0.00 | 0.00 | 50 | 1016.2 |
| 20260831023519 | 68 | 15 | 2.6 | 4.3 | 0.00 | 0.00 | 0.00 | 50 | 1016.3 |
| 20260831023019 | 68 | 0 | 1.7 | 4.3 | 0.00 | 0.00 | 0.00 | 50 | 1016.1 |
| 20260831022518 | 68 | 2 | 2.6 | 4.3 | 0.00 | 0.00 | 0.00 | 50 | 1016.1 |